Location: Arleux
(50.3632°N, 2.8721°E)
Time: 13:23:59
(UTC+00:00)

Cosmos 44 Rocket - Pass Details

Date: 15 December 2019
Orbit: 660 x 730 km, 65.1° (Epoch: 19 January)

Event Time Altitude Azimuth Distance (km) Brightness Sun altitude
Rises 06:55:00 0° 232° (SW) 3,051 6.4 -7.1°
Reaches altitude 10° 06:57:24 10° 237° (WSW) 2,127 5.5 -6.8°
Maximum altitude 07:02:08 56° 316° (NW) 810 3.4 -6.1°
Drops below altitude 10° 07:06:50 10° 35° (NE) 2,102 5.9 -5.5°
Sets 07:09:11 0° 39° (NE) 3,012 6.7 -5.2°
